CZ-4C DEB, 44613

Orbit data source: Space-Track

CZ-4C DEB, 44613 is space debris in SSO originally from a launch on Tue, 14 Nov 2017 UTC launched from the Taiyaun Space Center, China (TSC). Debris objects in space refer to the collection of defunct objects orbiting the Earth. Examples of debris include non-operational satellites, rocket bodies, and fragments generated from explosions, collisions, or faulty payload assembly.

Loading next visibility...
Identifier
44613, 2017-072D
Orbit
SSO
Country
Flag of CNCN / PRC
Related business
Manufacturer
Unknown
Mission
Spacecraft
Bus & Motor
Unknown
Mass
Unknown
Launch date (UTC)
2017-11-14 (8 years ago)
Launch vehicle
Unknown
Launch site
Taiyaun Space Center, China (TSC)
Object type
Payload
Rocket body
Debris
Shape & HBR
Unknown shape, 0.1 m
Radar Cross Section
Small (<0.1 m²)

Expand to show TLE details & history
Last TLE update: 9 hours ago

TLE from 9 hours ago
0 CZ-4C DEB
1 44613U 17072D   25355.07834448  .00000273  00000-0  24342-3 0  9993
2 44613  98.5171  42.9319 0230776 112.4911 250.0853 13.79923396393373
Epoch: 2025-12-21T01:52Z
TLE epoch observation values (Epoch: 2025-12-21T01:52:48.963Z)
Latitude
-0°
Longitude
-75.16807°
Altitude
1,028.17 km
Speed
7.307 km/s
True Right ascension
02h 51m 43s
True Declination
0° 00' 00"
Sunlit
Object was in full shadow at epoch
Visualization orbit readout
Latitude
Unknown
Longitude
Unknown
Altitude
Unknown
Speed
Unknown
Apparent Right ascension
Unknown
Apparent Declination
Unknown
Sunlit
N/A
Visualization observer readout
Local Sidereal Time
09:58:19
Azimuth
Unknown
Elevation
Unknown
Doppler factor
Unknown
Orbital elements
Apogee altitude
1,130.738 km
Perigee altitude
791.982 km
Semi-major axis
7,339.497 km
Eccentricity
0.02308
Inclination
98.5171°
RAAN
42.9319°
Arg. of periapsis
112.4911°
True anomaly
247.6239°
Mean anomaly
250.0853°
Eccentric anomaly
248.8521°
Mean motion
3.45179 °/min
Orbital period
104.29 mins
BSTAR
0.00024342
Loading maneuver chart data...
Computing Atmospheric mass density...
Loading historical data...
Loading historical data...
Loading historical data...
Loading historical data...
Loading historical data...
Loading historical data...
Loading historical data...
Other satellites on launch #72 in the year 2017 (2017-11-14 UTC)

Documentation

Showing up to 5 results
|